www.pogodaiklimat.ru

Погода и климат >> Архив погоды >> Иран >> Аэропорт Конарак


ПОГОДА в Аэропорту Конарак

  • Прогноз погоды в Аэропорту Конарак
  • Монитор погоды в Аэропорту Конарак

АРХИВ ПОГОДЫ в Аэропорту Конарак

Время (UTC), дата Ветер
(напр.,м/с)
 
Видим.   Явления Облачность Т
(С)
Тd
(С)
f
(%)
Тe
(С)
Тes
(С)
Комфортность P
(гПа)
Po
(гПа)
Тmin
(С)
Tmax
(С)
R
(мм)
R24
(мм)
S
(см)
18 17.06 З 3 6000 м дымка ясно +31.2 +28.5 86 +53 +53 опасность
перегрева
998.6 997.7
21 17.06 Ю 2 6000 м дымка 3/3 600 м
[St]
+30.5 +28.5 89 +52 +52 опасность
перегрева
998.1 997.2
00 18.06 штиль 0 6000 м дымка 4/4 600 м
[St]
+30.1 +28.5 91 +51 +51 опасность
перегрева
997.9 997.0
03 18.06 штиль 0 4000 м дымка 5/5 600 м
[St]
+30.9 -10.3 6 +27 +29 жарко 998.7 997.8 +29.8
06 18.06 ЮВ 4 6000 м дымка ясно +32.0 999.0 998.1
09 18.06 Ю 4 6000 м дымка ясно +32.9 +7.6 29 +27 +41 жарко 997.8 996.9 666
12 18.06 Ю 4 6000 м дымка ясно +33.4 996.0 995.1
15 18.06 З 4 5000 м дымка ясно +31.8 995.6 994.7 +33.7
18 18.06 штиль 0 4000 м дымка ясно +31.4 +29.9 92 +58 +58 опасность
перегрева
996.6 995.7
21 18.06 ЮЗ 2 6000 м дымка ясно +31.0 +29.9 94 +57 +57 опасность
перегрева
996.3 995.4 100
00 19.06 штиль 0 3000 м дымка ясно +30.4 +29.2 93 +53 +53 опасность
перегрева
995.8 994.9 1
03 19.06 В 2 4000 м дымка 3/3 600 м
[St]
+30.3 997.1 996.2 +29.0
06 19.06 ЮВ 5 5000 м дымка ясно +32.6 -0.3 12 +29 +39 жарко 997.4 996.5
09 19.06 ЮВ 7 4000 м дымка 1/1 600 м
[St]
+33.2 -0.3 12 +30 +35 жарко 997.3 996.4
12 19.06 ЮВ 6 4000 м дымка ясно +32.6 -0.3 12 +29 +32 жарко 996.6 995.7
15 19.06 Ю 7 5000 м дымка 5/5 600 м
[St]
+31.3 996.5 995.6 +33.5
18 19.06 ЮВ 7 5000 м дымка 4/4 600 м
[St]
+30.8 +28.4 87 +52 +52 опасность
перегрева
997.6 996.7 22
21 19.06 В 7 5000 м дымка 5/5 600 м
[St]
+30.8 +27.0 80 +48 +48 опасность
перегрева
997.8 996.9
00 20.06 ЮВ 9 5000 м дымка 4/4 600 м
[St]
+30.5 +27.4 84 +49 +49 опасность
перегрева
997.9 997.0
03 20.06 В 7 5000 м дымка 5/5 600 м
[St]
+30.9 1000.1 999.2 +30.3 666
06 20.06 ЮВ 10 5000 м пыльный позёмок 3/3 600 м
[St]
+32.2 -0.4 12 +29 +29 жарко 1001.1 1000.2 51
09 20.06 ЮВ 9 5000 м пыльный позёмок 1/1 600 м
[St]
+32.5 -10.4 6 +28 +30 жарко 1000.1 999.2 666
12 20.06 ЮВ 9 5000 м пыльный позёмок ясно +32.2 -0.4 12 +29 +30 жарко 998.4 997.5
15 20.06 ЮВ 7 4000 м дымка 3/3 600 м
[St]
+30.9 -0.3 13 +28 +28 жарко 998.9 998.0 +32.8 666
18 20.06 ЮВ 5 4000 м дымка 5/5 600 м
[St]
+30.8 +27.5 83 +50 +50 опасность
перегрева
1000.0 999.1
21 20.06 ЮВ 5 4000 м дымка 5/1 600 м
[St Ac und]
+30.3 +26.9 82 +47 +47 опасность
перегрева
999.7 998.8
00 21.06 В 4 5000 м дымка 4/3 600 м
[St Ac As]
+30.1 +26.9 83 +47 +47 опасность
перегрева
1000.1 999.2 1
03 21.06 ЮВ 5 4000 м дымка 5/5 600 м
[St Ac trans]
+30.3 1002.1 1001.2 +29.7 666
06 21.06 ЮВ 4 5000 м мгла 3/0
[Ac trans]
+31.3 +26.6 76 +48 +58 опасность
перегрева
1002.9 1002.0
09 21.06 ЮВ 5 5000 м мгла 3/0
[Ac trans]
+31.3 1001.5 1000.6 666
12 21.06 Ю 6 5000 м мгла ясно +31.2 999.6 998.7
15 21.06 Ю 4 5000 м дымка 1/1 600 м
[St]
+30.4 999.8 998.9 +32.0
18 21.06 Ю 6 5000 м дымка 4/4 600 м
[St]
+30.1 +27.2 85 +48 +48 опасность
перегрева
1001.3 1000.4
21 21.06 ЮВ 7 5000 м дымка 4/4 600 м
[St]
+30.0 +27.1 84 +47 +47 опасность
перегрева
1001.4 1000.5
00 22.06 ЮВ 2 5000 м дымка 5/5 600 м
[St]
+30.0 +26.7 83 +47 +47 опасность
перегрева
1001.6 1000.7
03 22.06 штиль 0 5000 м мгла 9/6 600 м
[St Ac trans]
+30.4 1002.4 1001.5 +29.7
06 22.06 ЮВ 5 6000 м мгла 4/4 600 м
[St]
+31.3 +26.9 78 +49 +55 опасность
перегрева
1003.0 1002.1
09 22.06 Ю 6 6000 м мгла 4/1 600 м
[St Ac trans]
+31.4 1001.8 1000.9
12 22.06 Ю 4 6000 м мгла 3/0
[Ac trans]
+32.1 +27.5 77 +51 +55 опасность
перегрева
1000.1 999.2
15 22.06 Ю 2 5000 м дымка 5/3 600 м
[St Ac trans]
+30.4 1000.5 999.6 +32.4
18 22.06 штиль 0 6000 м дымка ясно +30.4 +27.4 84 +49 +49 опасность
перегрева
1000.7 999.8
21 22.06 Ю 2 6000 м дымка 4/4 600 м
[St Ac trans]
+30.2 +27.5 86 +49 +49 опасность
перегрева
999.9 999.0
00 23.06 штиль 0 5000 м дымка 4/4 600 м
[St]
+30.1 +27.5 86 +49 +49 опасность
перегрева
999.6 998.7
03 23.06 В 2 5000 м дымка 8/5 600 м
[St Ac trans]
+30.3 1000.9 1000.0 +30.0 666
06 23.06 ЮВ 5 6000 м мгла 5/3 600 м
[St Ac trans]
+31.8 +27.3 77 +50 +56 опасность
перегрева
1001.3 1000.4
09 23.06 Ю 6 6000 м мгла 4/0
[Ac trans]
+31.9 1000.1 999.2
12 23.06 Ю 4 6000 м мгла ясно +32.5 998.2 997.3
15 23.06 ЮЗ 2 6000 м дымка 1/1 600 м
[St]
+31.5 998.1 997.2 +32.6
18 23.06 ЮВ 4 5000 м дымка 3/0
[Ac trans]
+31.3 +28.3 84 +52 +52 опасность
перегрева
999.0 998.1
21 23.06 ЮВ 4 5000 м дымка ясно +31.0 +28.0 84 +51 +51 опасность
перегрева
999.5 998.6
00 24.06 В 4 5000 м дымка ясно +30.7 +27.3 82 +49 +49 опасность
перегрева
1000.0 999.1
03 24.06 В 4 5000 м мгла 3/3 600 м
[St]
+31.4 1001.8 1000.9 +30.6 666
06 24.06 ЮВ 5 6000 м мгла ясно +33.0 1002.0 1001.1
09 24.06 ЮВ 6 6000 м мгла ясно +32.3 1000.6 999.7
12 24.06 Ю 6 6000 м дымка ясно +32.0 +11.6 29 +32 +35 жарко 998.5 997.6
15 24.06 Ю 4 5000 м дымка 1/1 600 м
[St]
+31.3 999.4 998.5 +33.6

 

Местоположение метеостанции Аэропорт Конарак (Иран): широта 25.28 долгота 60.62 высота над уровнем моря 8 м.

В архиве по умолчанию представлена погода в Аэропорту Конарак за последнюю неделю. Архивные данные за месяц целиком и за предыдущие месяцы, начиная с января 2011 года, Вы можете получить, выбрав интересующий диапазон дат из раскрывающегося списка и нажав кнопку "Ввод!".


*Определитесь, кто Вы:
робот инопланетянин человек

Внимание! Время в таблицах - всемирное. Для получения местного времени необходимо прибавить поправку, которая равна 3.5 ч.

Смотрите также архив погоды в соседних городах и на ближайших метеорологических станциях:

Погода в Дживани (Пакистан) (121 км)
Погода в Гавадаре (Пакистан) (173 км)
Погода в Ираншехре (Иран) (214 км)
Погода в Порту Sultan Qaboos (Оман) (278 км)
Погода в Сараване (Иран) (285 км)
Погода в Пасни (Пакистан) (288 км)
Погода в Джаске (Иран) (289 км)
Погода в Аль Амарат (Оман) (294 км)
Погода в Сибе (Оман) (303 км)
Погода в Калхате (Оман) (318 км)

Пояснения к столбцам:

Ветер - указаны скорость ветра в м/с - средняя за 10 мин, порывы в срок и между сроками (в фигурных скобках) и направление, откуда дует ветер: С - северный, СВ - северо-восточный, В - восточный, ЮВ - юго-восточный, Ю - южный, ЮЗ - юго-западный, З - западный, СЗ - северо-западный.
Видимость - горизонтальная дальность видимости в метрах или километрах. При видимости от 1 до 10 км при отсутствии осадков обычно наблюдается дымка, при ухудшении видимости до 1 км и менее - туман. В сухую погоду видимость может ухудшаться дымом, пылью или мглою.
Явления - указаны атмосферные явления, наблюдавшиеся в срок или в последний час перед сроком; фигурными скобками обозначены явления, наблюдавшиеся между сроками (за 1-3 часа до срока); квадратными скобками обозначены град или гололедные отложения с указанием их диаметра в мм.
Облачность - указаны через наклонную черту общая и нижняя облачность в баллах и высота нижней границы облаков в метрах; квадратными скобками обозначены формы облаков: Ci - перистые, Cs - перисто-слоистые, Cc - перисто-кучевые, Ac - высококучевые, As - высокослоистые, Sc - слоисто-кучевые, Ns - слоисто-дождевые, Cu - кучевые, Cb - кучево-дождевые. Подробнее классификацию облаков см. в Атласе облаков (PDF).
T - Температура воздуха - температура, измеренная на высоте 2 м над землей.
Td - Температура точки росы - температура, при понижении до которой содержащийся в воздухе водяной пар достигнет насыщения.
f - Относительная влажность воздуха - влажноcть воздуха, измеренная на высоте 2 м над землей.
Te - Эффективная температура - температура, которую ощущает одетый по сезону человек в тени. Характеристика душности погоды. При расчете учитывается влияние влажности воздуха и скорости ветра на теплоощущения человека.
Tes - Эффективная температура на солнце - температура, которую ощущает человек, с поправкой на солнечный нагрев. Характеристика знойности погоды. Зависит от высоты солнца над горизонтом, облачности и скорости ветра. Ночью, в пасмурную погоду, а также при ветре 12 м/с и более поправка равна нулю.
P - Атмосферное давление - приведенное к уровню моря атмосферное давление.
Po - Атмосферное давление - измеренное на уровне метеостанции атмосферное давление.
Tmin - Минимальная температура - минимум температуры воздуха на высоте 2 м над землей.
Tmax - Максимальная температура - максимум температуры воздуха на высоте 2 м над землей.
R - Количество осадков - Количество выпавших осадков за период времени, мм. При наведении курсора мыши на число - период времени, за который выпало указанное количество осадков.
R24 - Количество осадков - Количество выпавших осадков за 24 часа, мм.
S - Снежный покров - Высота снежного покрова, см. При наведении курсора мыши на число - состояние снежного покрова и степень покрытия местности в баллах.